| time (UTC) | temp C | wind direction | speed KPH | gust KPH | rain 1hr cm | rain 24hr cm | rain mn cm | humidity % | barometer mb |
| 20260506161011 | 27 | 198 | 3.2 | 14.5 | 0.00 | 0.00 | 0.00 | 87 | 1010.4 |
| 20260506160507 | 27 | 157 | 4.8 | 14.5 | 0.00 | 0.00 | 0.00 | 87 | 1010.4 |
| 20260506160021 | 27 | 171 | 4.8 | 14.5 | 0.00 | 0.00 | 0.00 | 87 | 1010.3 |
| 20260506155508 | 27 | 171 | 4.8 | 11.3 | 0.00 | 0.00 | 0.00 | 87 | 1010.3 |
| 20260506155009 | 27 | 165 | 3.2 | 14.5 | 0.00 | 0.00 | 0.00 | 87 | 1010.4 |
| 20260506154530 | 27 | 200 | 4.8 | 14.5 | 0.00 | 0.00 | 0.00 | 88 | 1010.3 |
| 20260506154006 | 27 | 163 | 4.8 | 16.1 | 0.00 | 0.00 | 0.00 | 87 | 1010.3 |
| 20260506153510 | 27 | 238 | 4.8 | 16.1 | 0.00 | 0.00 | 0.00 | 87 | 1010.4 |
| 20260506153016 | 27 | 160 | 3.2 | 16.1 | 0.00 | 0.00 | 0.00 | 88 | 1010.3 |
| 20260506152507 | 26 | 205 | 4.8 | 9.7 | 0.00 | 0.00 | 0.00 | 89 | 1010.2 |
| 20260506152011 | 26 | 191 | 1.6 | 9.7 | 0.00 | 0.00 | 0.00 | 89 | 1010.0 |
| 20260506151526 | 26 | 170 | 1.6 | 11.3 | 0.00 | 0.00 | 0.00 | 89 | 1010.0 |
| 20260506151012 | 26 | 148 | 1.6 | 11.3 | 0.00 | 0.00 | 0.00 | 89 | 1009.8 |
| 20260506150511 | 26 | 178 | 3.2 | 12.9 | 0.00 | 0.00 | 0.00 | 89 | 1009.8 |
| 20260506150014 | 26 | 171 | 4.8 | 12.9 | 0.00 | 0.00 | 0.00 | 90 | 1009.9 |
| 20260506145512 | 26 | 146 | 4.8 | 11.3 | 0.00 | 0.00 | 0.00 | 90 | 1009.8 |
| 20260506145010 | 26 | 157 | 3.2 | 9.7 | 0.00 | 0.00 | 0.00 | 91 | 1009.7 |
| 20260506144536 | 26 | 9 | 1.6 | 12.9 | 0.00 | 0.00 | 0.00 | 91 | 1009.7 |
| 20260506144007 | 26 | 168 | 4.8 | 14.5 | 0.00 | 0.00 | 0.00 | 91 | 1009.6 |
| 20260506143510 | 26 | 146 | 3.2 | 16.1 | 0.00 | 0.00 | 0.00 | 92 | 1009.4 |
| 20260506143028 | 26 | 166 | 4.8 | 16.1 | 0.00 | 0.00 | 0.00 | 92 | 1009.2 |
| 20260506142514 | 25 | 187 | 4.8 | 17.7 | 0.00 | 0.00 | 0.00 | 93 | 1009.2 |
| 20260506142008 | 25 | 196 | 4.8 | 17.7 | 0.00 | 0.00 | 0.00 | 93 | 1009.2 |
| 20260506141520 | 25 | 225 | 4.8 | 16.1 | 0.00 | 0.00 | 0.00 | 94 | 1009.4 |
| 20260506141014 | 25 | 165 | 3.2 | 11.3 | 0.00 | 0.00 | 0.00 | 94 | 1009.4 |
| 20260506140508 | 25 | 142 | 3.2 | 14.5 | 0.00 | 0.00 | 0.00 | 94 | 1009.4 |
| 20260506140036 | 25 | 164 | 6.4 | 14.5 | 0.00 | 0.00 | 0.00 | 94 | 1009.5 |
| 20260506135509 | 25 | 137 | 4.8 | 12.9 | 0.00 | 0.00 | 0.00 | 94 | 1009.5 |
| 20260506135014 | 25 | 165 | 6.4 | 12.9 | 0.00 | 0.00 | 0.00 | 94 | 1009.5 |
| 20260506134533 | 25 | 175 | 4.8 | 11.3 | 0.00 | 0.00 | 0.00 | 95 | 1009.6 |
| 20260506134006 | 24 | 200 | 3.2 | 9.7 | 0.00 | 0.00 | 0.00 | 95 | 1009.6 |
| 20260506133509 | 24 | 143 | 1.6 | 11.3 | 0.00 | 0.00 | 0.00 | 95 | 1009.5 |
| 20260506133023 | 24 | 205 | 3.2 | 11.3 | 0.00 | 0.00 | 0.00 | 95 | 1009.6 |
| 20260506132514 | 24 | 143 | 3.2 | 11.3 | 0.00 | 0.00 | 0.00 | 95 | 1009.6 |
| 20260506132012 | 24 | 126 | 1.6 | 8.0 | 0.00 | 0.00 | 0.00 | 95 | 1009.7 |
| 20260506131533 | 24 | 132 | 3.2 | 11.3 | 0.00 | 0.00 | 0.00 | 95 | 1009.7 |
| 20260506131012 | 23 | 178 | 1.6 | 11.3 | 0.00 | 0.00 | 0.00 | 95 | 1009.7 |
| 20260506130510 | 23 | 175 | 3.2 | 11.3 | 0.00 | 0.00 | 0.00 | 95 | 1009.7 |
| 20260506130018 | 23 | 214 | 3.2 | 9.7 | 0.00 | 0.00 | 0.00 | 95 | 1009.7 |
| 20260506125508 | 23 | 170 | 3.2 | 9.7 | 0.00 | 0.00 | 0.00 | 95 | 1009.8 |
| 20260506125010 | 23 | 153 | 3.2 | 9.7 | 0.00 | 0.00 | 0.00 | 95 | 1009.7 |
| 20260506124527 | 23 | 140 | 3.2 | 9.7 | 0.00 | 0.00 | 0.00 | 95 | 1009.6 |
| 20260506124010 | 23 | 221 | 1.6 | 6.4 | 0.00 | 0.00 | 0.00 | 95 | 1009.6 |
| 20260506123503 | 23 | 178 | 1.6 | 8.0 | 0.00 | 0.00 | 0.00 | 95 | 1009.6 |
| 20260506123015 | 23 | 148 | 1.6 | 8.0 | 0.00 | 0.00 | 0.00 | 95 | 1009.7 |
| 20260506122506 | 23 | 93 | 1.6 | 8.0 | 0.00 | 0.00 | 0.00 | 95 | 1009.5 |
| 20260506122007 | 23 | 137 | 0.0 | 8.0 | 0.00 | 0.00 | 0.00 | 95 | 1009.5 |
| 20260506121521 | 23 | 178 | 1.6 | 6.4 | 0.00 | 0.00 | 0.00 | 95 | 1009.4 |
| 20260506121006 | 23 | 193 | 1.6 | 6.4 | 0.00 | 0.00 | 0.00 | 95 | 1009.4 |
| 20260506120507 | 23 | 171 | 1.6 | 6.4 | 0.00 | 0.00 | 0.00 | 94 | 1009.4 |
| 20260506120032 | 23 | 192 | 1.6 | 6.4 | 0.00 | 0.00 | 0.00 | 94 | 1009.3 |
| 20260506115509 | 23 | 221 | 1.6 | 4.8 | 0.00 | 0.00 | 0.00 | 94 | 1009.3 |
| 20260506115003 | 23 | 153 | 1.6 | 11.3 | 0.00 | 0.00 | 0.00 | 94 | 1009.2 |
| 20260506114519 | 23 | 165 | 1.6 | 11.3 | 0.00 | 0.00 | 0.00 | 94 | 1009.2 |
| 20260506114012 | 23 | 161 | 1.6 | 8.0 | 0.00 | 0.00 | 0.00 | 94 | 1009.2 |
| 20260506113507 | 23 | 221 | 1.6 | 8.0 | 0.00 | 0.00 | 0.00 | 94 | 1009.0 |
| 20260506113030 | 23 | 196 | 3.2 | 11.3 | 0.00 | 0.00 | 0.00 | 94 | 1009.0 |
| 20260506112510 | 23 | 221 | 3.2 | 11.3 | 0.00 | 0.00 | 0.00 | 94 | 1009.0 |
| 20260506112009 | 23 | 178 | 4.8 | 11.3 | 0.00 | 0.00 | 0.00 | 94 | 1008.9 |
| 20260506111507 | 23 | 169 | 3.2 | 8.0 | 0.00 | 0.00 | 0.00 | 94 | 1008.8 |
| 20260506111004 | 23 | 168 | 1.6 | 8.0 | 0.00 | 0.00 | 0.00 | 94 | 1008.7 |
| 20260506110511 | 23 | 153 | 1.6 | 8.0 | 0.00 | 0.00 | 0.00 | 94 | 1008.7 |
| 20260506110019 | 23 | 148 | 1.6 | 8.0 | 0.00 | 0.00 | 0.00 | 94 | 1008.7 |
| 20260506105507 | 23 | 190 | 1.6 | 8.0 | 0.00 | 0.00 | 0.00 | 94 | 1008.6 |
| 20260506105008 | 23 | 51 | 1.6 | 8.0 | 0.00 | 0.00 | 0.00 | 94 | 1008.6 |
| 20260506104528 | 23 | 186 | 3.2 | 8.0 | 0.00 | 0.00 | 0.00 | 94 | 1008.5 |
| 20260506104009 | 23 | 196 | 3.2 | 8.0 | 0.00 | 0.00 | 0.00 | 94 | 1008.5 |
| 20260506103503 | 23 | 178 | 3.2 | 8.0 | 0.00 | 0.00 | 0.00 | 93 | 1008.6 |
| 20260506103010 | 23 | 170 | 1.6 | 8.0 | 0.00 | 0.00 | 0.00 | 93 | 1008.6 |
| 20260506102507 | 23 | 148 | 1.6 | 8.0 | 0.00 | 0.00 | 0.00 | 93 | 1008.6 |
| 20260506102007 | 23 | 360 | 3.2 | 9.7 | 0.00 | 0.00 | 0.00 | 93 | 1008.6 |
| 20260506101524 | 23 | 178 | 3.2 | 9.7 | 0.00 | 0.00 | 0.00 | 93 | 1008.6 |
| 20260506101012 | 23 | 190 | 3.2 | 9.7 | 0.00 | 0.00 | 0.00 | 93 | 1008.5 |
| 20260506100514 | 23 | 169 | 3.2 | 9.7 | 0.00 | 0.00 | 0.00 | 93 | 1008.4 |
| 20260506100028 | 23 | 221 | 3.2 | 11.3 | 0.00 | 0.00 | 0.00 | 93 | 1008.4 |
| 20260506095504 | 23 | 159 | 4.8 | 11.3 | 0.00 | 0.00 | 0.00 | 93 | 1008.4 |
| 20260506095007 | 23 | 196 | 4.8 | 11.3 | 0.00 | 0.00 | 0.00 | 93 | 1008.3 |
| 20260506094515 | 23 | 178 | 4.8 | 9.7 | 0.00 | 0.00 | 0.00 | 93 | 1008.2 |
| 20260506094008 | 23 | 146 | 3.2 | 9.7 | 0.00 | 0.00 | 0.00 | 93 | 1008.3 |
| 20260506093511 | 23 | 178 | 4.8 | 9.7 | 0.00 | 0.00 | 0.00 | 93 | 1008.2 |
| 20260506093031 | 23 | 171 | 4.8 | 12.9 | 0.00 | 0.00 | 0.00 | 93 | 1008.2 |
| 20260506092509 | 23 | 175 | 6.4 | 14.5 | 0.00 | 0.00 | 0.00 | 92 | 1008.2 |
| 20260506092014 | 23 | 164 | 6.4 | 19.3 | 0.00 | 0.00 | 0.00 | 92 | 1008.3 |
| 20260506091528 | 23 | 155 | 6.4 | 19.3 | 0.00 | 0.00 | 0.00 | 93 | 1008.2 |
| 20260506091007 | 23 | 182 | 8.0 | 17.7 | 0.00 | 0.00 | 0.00 | 92 | 1008.2 |
| 20260506090513 | 23 | 161 | 4.8 | 17.7 | 0.00 | 0.00 | 0.00 | 92 | 1008.3 |
| 20260506090018 | 23 | 155 | 6.4 | 17.7 | 0.00 | 0.00 | 0.00 | 92 | 1008.4 |
| 20260506085513 | 24 | 171 | 6.4 | 11.3 | 0.00 | 0.00 | 0.00 | 92 | 1008.4 |
| 20260506085006 | 24 | 182 | 4.8 | 12.9 | 0.00 | 0.00 | 0.00 | 92 | 1008.4 |
| 20260506084532 | 24 | 211 | 4.8 | 14.5 | 0.00 | 0.00 | 0.00 | 92 | 1008.4 |
| 20260506084008 | 24 | 182 | 8.0 | 14.5 | 0.00 | 0.00 | 0.00 | 92 | 1008.3 |
| 20260506083508 | 24 | 150 | 4.8 | 14.5 | 0.00 | 0.00 | 0.00 | 92 | 1008.4 |
| 20260506083032 | 24 | 187 | 3.2 | 16.1 | 0.00 | 0.00 | 0.00 | 92 | 1008.6 |
| 20260506082511 | 24 | 193 | 6.4 | 16.1 | 0.00 | 0.00 | 0.00 | 92 | 1008.5 |
| 20260506082007 | 24 | 159 | 4.8 | 17.7 | 0.00 | 0.00 | 0.00 | 92 | 1008.5 |
| 20260506081525 | 24 | 192 | 3.2 | 17.7 | 0.00 | 0.00 | 0.00 | 92 | 1008.6 |
| 20260506081011 | 24 | 167 | 6.4 | 17.7 | 0.00 | 0.00 | 0.00 | 92 | 1008.6 |
| 20260506080509 | 24 | 171 | 4.8 | 11.3 | 0.00 | 0.00 | 0.00 | 92 | 1008.5 |
| 20260506073507 | 24 | 188 | 6.4 | 19.3 | 0.00 | 0.00 | 0.00 | 92 | 1008.9 |
| 20260506073024 | 24 | 166 | 6.4 | 14.5 | 0.00 | 0.00 | 0.00 | 92 | 1008.8 |
| 20260506072509 | 24 | 165 | 6.4 | 16.1 | 0.00 | 0.00 | 0.00 | 92 | 1008.9 |
| 20260506072016 | 24 | 183 | 3.2 | 16.1 | 0.00 | 0.00 | 0.00 | 92 | 1008.9 |
| 20260506071527 | 24 | 194 | 3.2 | 14.5 | 0.00 | 0.00 | 0.00 | 92 | 1008.9 |
| 20260506071004 | 24 | 157 | 6.4 | 14.5 | 0.00 | 0.00 | 0.00 | 92 | 1008.9 |
| 20260506070510 | 24 | 194 | 4.8 | 11.3 | 0.00 | 0.00 | 0.00 | 92 | 1009.1 |
| 20260506062510 | 24 | 265 | 4.8 | 11.3 | 0.00 | 0.00 | 0.00 | 92 | 1009.3 |
| 20260506062013 | 24 | 173 | 4.8 | 9.7 | 0.00 | 0.00 | 0.00 | 92 | 1009.4 |
| 20260506061523 | 24 | 254 | 3.2 | 14.5 | 0.00 | 0.00 | 0.00 | 92 | 1009.5 |
| 20260506061010 | 24 | 168 | 3.2 | 14.5 | 0.00 | 0.00 | 0.00 | 92 | 1009.5 |
| 20260506060509 | 24 | 142 | 6.4 | 12.9 | 0.00 | 0.00 | 0.00 | 92 | 1009.5 |
| 20260506051008 | 24 | 163 | 3.2 | 14.5 | 0.00 | 0.00 | 0.00 | 91 | 1009.3 |
| 20260506050510 | 24 | 170 | 4.8 | 14.5 | 0.00 | 0.00 | 0.00 | 91 | 1009.3 |
| 20260506045010 | 24 | 238 | 3.2 | 14.5 | 0.00 | 0.00 | 0.00 | 91 | 1009.3 |
| 20260506044537 | 24 | 192 | 3.2 | 14.5 | 0.00 | 0.00 | 0.00 | 91 | 1009.3 |
| 20260506044008 | 24 | 159 | 4.8 | 14.5 | 0.00 | 0.00 | 0.00 | 91 | 1009.3 |
| 20260506043513 | 24 | 173 | 3.2 | 14.5 | 0.00 | 0.00 | 0.00 | 91 | 1009.4 |
| 20260506043014 | 25 | 169 | 3.2 | 14.5 | 0.00 | 0.00 | 0.00 | 90 | 1009.3 |
| 20260506042512 | 25 | 164 | 3.2 | 12.9 | 0.00 | 0.00 | 0.00 | 90 | 1009.3 |
| 20260506042011 | 25 | 188 | 4.8 | 11.3 | 0.00 | 0.00 | 0.00 | 90 | 1009.2 |
| 20260506041522 | 25 | 171 | 1.6 | 12.9 | 0.00 | 0.00 | 0.00 | 90 | 1009.2 |
| 20260506041013 | 25 | 211 | 6.4 | 14.5 | 0.00 | 0.00 | 0.00 | 90 | 1009.1 |
| 20260506040514 | 25 | 207 | 6.4 | 14.5 | 0.00 | 0.00 | 0.00 | 89 | 1009.1 |
| 20260506040028 | 25 | 143 | 8.0 | 17.7 | 0.00 | 0.00 | 0.00 | 89 | 1009.1 |
| 20260506035510 | 25 | 168 | 8.0 | 17.7 | 0.00 | 0.00 | 0.00 | 89 | 1009.2 |
| 20260506035007 | 25 | 182 | 4.8 | 12.9 | 0.00 | 0.00 | 0.00 | 89 | 1009.2 |
| 20260506034520 | 25 | 148 | 3.2 | 17.7 | 0.00 | 0.00 | 0.00 | 89 | 1009.1 |
| 20260506034007 | 25 | 173 | 4.8 | 17.7 | 0.00 | 0.00 | 0.00 | 89 | 1008.9 |
| 20260506033514 | 25 | 153 | 6.4 | 17.7 | 0.00 | 0.00 | 0.00 | 89 | 1008.8 |
| 20260506033027 | 25 | 202 | 6.4 | 17.7 | 0.00 | 0.00 | 0.00 | 89 | 1008.7 |
| 20260506032510 | 25 | 218 | 3.2 | 17.7 | 0.00 | 0.00 | 0.00 | 89 | 1008.6 |
| 20260506032012 | 25 | 161 | 4.8 | 17.7 | 0.00 | 0.00 | 0.00 | 89 | 1008.5 |
| 20260506031518 | 25 | 187 | 8.0 | 19.3 | 0.00 | 0.00 | 0.00 | 89 | 1008.5 |
| 20260506031008 | 25 | 198 | 6.4 | 19.3 | 0.00 | 0.00 | 0.00 | 89 | 1008.4 |
| 20260506030508 | 25 | 93 | 4.8 | 17.7 | 0.00 | 0.00 | 0.00 | 89 | 1008.5 |
| 20260506030021 | 25 | 178 | 6.4 | 17.7 | 0.00 | 0.00 | 0.00 | 88 | 1008.6 |
| 20260506025511 | 25 | 169 | 6.4 | 20.9 | 0.00 | 0.00 | 0.00 | 88 | 1008.6 |
| 20260506025010 | 25 | 163 | 9.7 | 22.5 | 0.00 | 0.00 | 0.00 | 88 | 1008.5 |
| 20260506024532 | 25 | 213 | 9.7 | 22.5 | 0.00 | 0.00 | 0.00 | 88 | 1008.4 |
| 20260506024006 | 25 | 189 | 9.7 | 22.5 | 0.00 | 0.00 | 0.00 | 88 | 1008.3 |
| 20260506023510 | 25 | 205 | 6.4 | 14.5 | 0.00 | 0.00 | 0.00 | 88 | 1008.2 |
| 20260506023014 | 25 | 187 | 6.4 | 17.7 | 0.00 | 0.00 | 0.00 | 88 | 1008.2 |
| 20260506022513 | 25 | 189 | 8.0 | 17.7 | 0.00 | 0.00 | 0.00 | 88 | 1008.1 |
| 20260506022011 | 25 | 150 | 4.8 | 14.5 | 0.00 | 0.00 | 0.00 | 88 | 1008.0 |
| 20260506021525 | 25 | 186 | 6.4 | 16.1 | 0.00 | 0.00 | 0.00 | 88 | 1008.0 |
| 20260506021016 | 25 | 173 | 6.4 | 17.7 | 0.00 | 0.00 | 0.00 | 88 | 1007.9 |
| 20260506020511 | 25 | 171 | 8.0 | 17.7 | 0.00 | 0.00 | 0.00 | 87 | 1007.9 |
| 20260506020014 | 25 | 178 | 3.2 | 11.3 | 0.00 | 0.00 | 0.00 | 87 | 1007.9 |
| 20260506015504 | 25 | 184 | 4.8 | 16.1 | 0.00 | 0.00 | 0.00 | 87 | 1007.8 |
| 20260506015006 | 25 | 309 | 6.4 | 16.1 | 0.00 | 0.00 | 0.00 | 87 | 1007.7 |
| 20260506014519 | 25 | 178 | 6.4 | 14.5 | 0.00 | 0.00 | 0.00 | 87 | 1007.6 |
| 20260506014007 | 26 | 202 | 6.4 | 17.7 | 0.00 | 0.00 | 0.00 | 87 | 1007.6 |
| 20260506013510 | 26 | 187 | 6.4 | 19.3 | 0.00 | 0.00 | 0.00 | 87 | 1007.6 |
| 20260506013026 | 26 | 171 | 11.3 | 19.3 | 0.00 | 0.00 | 0.00 | 86 | 1007.5 |
| 20260506012511 | 26 | 169 | 6.4 | 17.7 | 0.00 | 0.00 | 0.00 | 86 | 1007.3 |
| 20260506012008 | 26 | 175 | 6.4 | 17.7 | 0.00 | 0.00 | 0.00 | 86 | 1007.2 |
| 20260506011517 | 26 | 195 | 6.4 | 16.1 | 0.00 | 0.00 | 0.00 | 86 | 1007.1 |
| 20260506011009 | 26 | 163 | 6.4 | 16.1 | 0.00 | 0.00 | 0.00 | 86 | 1007.0 |
| 20260506010518 | 26 | 202 | 8.0 | 14.5 | 0.00 | 0.00 | 0.00 | 85 | 1007.0 |
| 20260506010045 | 26 | 67 | 6.4 | 16.1 | 0.00 | 0.00 | 0.00 | 85 | 1007.0 |
| 20260506005509 | 26 | 207 | 6.4 | 16.1 | 0.00 | 0.00 | 0.00 | 85 | 1007.0 |
| 20260506005010 | 26 | 178 | 4.8 | 17.7 | 0.00 | 0.00 | 0.00 | 85 | 1007.0 |
| 20260506004527 | 26 | 221 | 6.4 | 17.7 | 0.00 | 0.00 | 0.00 | 84 | 1007.0 |
| 20260506004006 | 26 | 190 | 6.4 | 25.7 | 0.00 | 0.00 | 0.00 | 84 | 1006.9 |
| 20260506003510 | 26 | 153 | 9.7 | 25.7 | 0.00 | 0.00 | 0.00 | 84 | 1006.9 |
| 20260506003017 | 26 | 207 | 8.0 | 24.1 | 0.00 | 0.00 | 0.00 | 84 | 1006.7 |
| 20260506002508 | 26 | 34 | 9.7 | 24.1 | 0.00 | 0.00 | 0.00 | 84 | 1006.7 |
| 20260506002010 | 26 | 175 | 12.9 | 22.5 | 0.00 | 0.00 | 0.00 | 84 | 1006.7 |
| 20260506001524 | 26 | 155 | 9.7 | 22.5 | 0.00 | 0.00 | 0.00 | 84 | 1006.7 |
| 20260506001009 | 26 | 175 | 8.0 | 22.5 | 0.00 | 0.00 | 0.00 | 83 | 1006.8 |
| 20260506000512 | 27 | 175 | 8.0 | 20.9 | 0.00 | 0.00 | 0.00 | 83 | 1006.8 |
| 20260506000014 | 27 | 188 | 9.7 | 20.9 | 0.00 | 0.00 | 0.00 | 84 | 1006.8 |
| 20260505235504 | 27 | 166 | 9.7 | 20.9 | 0.00 | 0.00 | 0.00 | 83 | 1006.8 |
| 20260505235011 | 27 | 185 | 9.7 | 20.9 | 0.00 | 0.00 | 0.00 | 83 | 1006.6 |
| 20260505234519 | 27 | 152 | 8.0 | 20.9 | 0.00 | 0.00 | 0.00 | 83 | 1006.6 |
| 20260505234009 | 27 | 315 | 9.7 | 27.4 | 0.00 | 0.00 | 0.00 | 83 | 1006.6 |
| 20260505233510 | 27 | 207 | 11.3 | 27.4 | 0.00 | 0.00 | 0.00 | 83 | 1006.5 |
| 20260505233028 | 27 | 175 | 6.4 | 20.9 | 0.00 | 0.00 | 0.00 | 83 | 1006.6 |
| 20260505232517 | 27 | 190 | 8.0 | 24.1 | 0.00 | 0.00 | 0.00 | 83 | 1006.7 |
| 20260505232009 | 27 | 178 | 11.3 | 27.4 | 0.00 | 0.00 | 0.00 | 82 | 1006.7 |
| 20260505231529 | 27 | 218 | 11.3 | 27.4 | 0.00 | 0.00 | 0.00 | 82 | 1006.6 |
| 20260505231007 | 27 | 196 | 11.3 | 25.7 | 0.00 | 0.00 | 0.00 | 82 | 1006.6 |
| 20260505230507 | 27 | 195 | 9.7 | 20.9 | 0.00 | 0.00 | 0.00 | 82 | 1006.7 |
| 20260505230038 | 28 | 9 | 4.8 | 24.1 | 0.00 | 0.00 | 0.00 | 83 | 1006.6 |
| 20260505225511 | 28 | 182 | 9.7 | 25.7 | 0.00 | 0.00 | 0.00 | 83 | 1006.6 |
| 20260505225010 | 27 | 194 | 11.3 | 25.7 | 0.00 | 0.00 | 0.00 | 82 | 1006.6 |
| 20260505224533 | 28 | 93 | 6.4 | 27.4 | 0.00 | 0.00 | 0.00 | 82 | 1006.6 |
| 20260505224005 | 28 | 200 | 9.7 | 27.4 | 0.00 | 0.00 | 0.00 | 82 | 1006.7 |
| 20260505223507 | 28 | 265 | 12.9 | 25.7 | 0.00 | 0.00 | 0.00 | 81 | 1006.7 |
| 20260505223017 | 28 | 178 | 6.4 | 24.1 | 0.00 | 0.00 | 0.00 | 81 | 1006.7 |
| 20260505222510 | 28 | 175 | 9.7 | 24.1 | 0.00 | 0.00 | 0.00 | 81 | 1006.8 |
| 20260505222008 | 28 | 170 | 8.0 | 22.5 | 0.00 | 0.00 | 0.00 | 81 | 1006.7 |
| 20260505221526 | 28 | 197 | 6.4 | 22.5 | 0.00 | 0.00 | 0.00 | 81 | 1006.8 |
| 20260505221010 | 28 | 175 | 9.7 | 17.7 | 0.00 | 0.00 | 0.00 | 80 | 1006.8 |
| 20260505220509 | 28 | 234 | 6.4 | 24.1 | 0.00 | 0.00 | 0.00 | 80 | 1006.8 |
| 20260505220013 | 28 | 183 | 11.3 | 24.1 | 0.00 | 0.00 | 0.00 | 79 | 1006.9 |
| 20260505215508 | 28 | 178 | 8.0 | 20.9 | 0.00 | 0.00 | 0.00 | 80 | 1007.0 |
| 20260505215007 | 28 | 194 | 9.7 | 24.1 | 0.00 | 0.00 | 0.00 | 80 | 1007.1 |
| 20260505214521 | 28 | 185 | 8.0 | 24.1 | 0.00 | 0.00 | 0.00 | 80 | 1007.0 |
| 20260505214008 | 28 | 167 | 9.7 | 24.1 | 0.00 | 0.00 | 0.00 | 79 | 1007.1 |
| 20260505213508 | 28 | 189 | 11.3 | 24.1 | 0.00 | 0.00 | 0.00 | 79 | 1007.2 |
| 20260505213029 | 28 | 178 | 9.7 | 27.4 | 0.00 | 0.00 | 0.00 | 80 | 1007.2 |
| 20260505212513 | 28 | 137 | 6.4 | 30.6 | 0.00 | 0.00 | 0.00 | 79 | 1007.3 |
| 20260505212006 | 29 | 196 | 9.7 | 30.6 | 0.00 | 0.00 | 0.00 | 79 | 1007.2 |
| 20260505211520 | 28 | 187 | 9.7 | 24.1 | 0.00 | 0.00 | 0.00 | 79 | 1007.3 |
| 20260505211007 | 28 | 227 | 11.3 | 24.1 | 0.00 | 0.00 | 0.00 | 79 | 1007.3 |
| 20260505210508 | 28 | 184 | 8.0 | 24.1 | 0.00 | 0.00 | 0.00 | 80 | 1007.5 |
| 20260505210026 | 28 | 194 | 6.4 | 24.1 | 0.00 | 0.00 | 0.00 | 80 | 1007.6 |
| 20260505205513 | 28 | 164 | 6.4 | 22.5 | 0.00 | 0.00 | 0.00 | 80 | 1007.7 |
| 20260505205011 | 28 | 146 | 9.7 | 20.9 | 0.00 | 0.00 | 0.00 | 80 | 1007.7 |
| 20260505204527 | 28 | 169 | 11.3 | 22.5 | 0.00 | 0.00 | 0.00 | 80 | 1007.9 |
| 20260505204012 | 28 | 183 | 8.0 | 29.0 | 0.00 | 0.00 | 0.00 | 80 | 1008.0 |
| 20260505203510 | 28 | 171 | 12.9 | 29.0 | 0.00 | 0.00 | 0.00 | 79 | 1008.0 |
| 20260505203028 | 29 | 159 | 9.7 | 17.7 | 0.00 | 0.00 | 0.00 | 80 | 1008.0 |
| 20260505202510 | 29 | 229 | 9.7 | 25.7 | 0.00 | 0.00 | 0.00 | 79 | 1008.0 |
| 20260505202010 | 29 | 157 | 9.7 | 25.7 | 0.00 | 0.00 | 0.00 | 79 | 1008.2 |
| 20260505201526 | 29 | 93 | 6.4 | 20.9 | 0.00 | 0.00 | 0.00 | 80 | 1008.2 |
| 20260505201011 | 29 | 186 | 6.4 | 20.9 | 0.00 | 0.00 | 0.00 | 81 | 1008.3 |
| 20260505200511 | 28 | 153 | 6.4 | 20.9 | 0.00 | 0.00 | 0.00 | 81 | 1008.4 |
| 20260505200012 | 28 | 169 | 9.7 | 24.1 | 0.00 | 0.00 | 0.00 | 80 | 1008.4 |
| 20260505195507 | 28 | 178 | 4.8 | 24.1 | 0.00 | 0.00 | 0.00 | 80 | 1008.4 |
| 20260505195009 | 28 | 197 | 9.7 | 22.5 | 0.00 | 0.00 | 0.00 | 81 | 1008.5 |
| 20260505194522 | 28 | 157 | 9.7 | 22.5 | 0.00 | 0.00 | 0.00 | 81 | 1008.6 |
| 20260505194012 | 28 | 171 | 4.8 | 19.3 | 0.00 | 0.00 | 0.00 | 81 | 1008.7 |
| 20260505193510 | 28 | 81 | 8.0 | 24.1 | 0.00 | 0.00 | 0.00 | 82 | 1008.7 |
| 20260505193028 | 28 | 197 | 9.7 | 24.1 | 0.00 | 0.00 | 0.00 | 82 | 1008.7 |
| 20260505192511 | 28 | 163 | 6.4 | 16.1 | 0.00 | 0.00 | 0.00 | 83 | 1008.7 |
| 20260505192009 | 28 | 178 | 6.4 | 19.3 | 0.00 | 0.00 | 0.00 | 83 | 1008.7 |
| 20260505191515 | 27 | 178 | 6.4 | 19.3 | 0.00 | 0.00 | 0.00 | 82 | 1008.8 |
| 20260505191009 | 28 | 190 | 6.4 | 19.3 | 0.00 | 0.00 | 0.00 | 82 | 1008.9 |
| 20260505190514 | 28 | 175 | 3.2 | 20.9 | 0.00 | 0.00 | 0.00 | 83 | 1008.9 |
| 20260505190033 | 27 | 9 | 9.7 | 24.1 | 0.00 | 0.00 | 0.00 | 82 | 1008.8 |
| 20260505185511 | 28 | 192 | 8.0 | 27.4 | 0.00 | 0.00 | 0.00 | 82 | 1008.9 |
| 20260505185011 | 28 | 187 | 8.0 | 27.4 | 0.00 | 0.00 | 0.00 | 82 | 1008.8 |
| 20260505184528 | 28 | 185 | 6.4 | 16.1 | 0.00 | 0.00 | 0.00 | 83 | 1008.9 |
| 20260505184007 | 27 | 265 | 6.4 | 24.1 | 0.00 | 0.00 | 0.00 | 82 | 1008.9 |
| 20260505183508 | 27 | 195 | 6.4 | 24.1 | 0.00 | 0.00 | 0.00 | 82 | 1008.9 |
| 20260505183019 | 27 | 238 | 6.4 | 19.3 | 0.00 | 0.00 | 0.00 | 83 | 1009.1 |
| 20260505182511 | 27 | 184 | 6.4 | 17.7 | 0.00 | 0.00 | 0.00 | 83 | 1009.1 |
| 20260505182016 | 27 | 192 | 6.4 | 16.1 | 0.00 | 0.00 | 0.00 | 84 | 1009.2 |
| 20260505181532 | 27 | 216 | 3.2 | 19.3 | 0.00 | 0.00 | 0.00 | 83 | 1009.3 |
| 20260505181009 | 27 | 199 | 6.4 | 19.3 | 0.00 | 0.00 | 0.00 | 84 | 1009.3 |
| 20260505180509 | 27 | 157 | 4.8 | 19.3 | 0.00 | 0.00 | 0.00 | 85 | 1009.3 |
| 20260505180016 | 27 | 209 | 4.8 | 16.1 | 0.00 | 0.00 | 0.00 | 84 | 1009.4 |
| 20260505175512 | 27 | 165 | 4.8 | 16.1 | 0.00 | 0.00 | 0.00 | 84 | 1009.4 |
| 20260505175016 | 27 | 216 | 6.4 | 17.7 | 0.00 | 0.00 | 0.00 | 84 | 1009.3 |
| 20260505174525 | 27 | 189 | 8.0 | 17.7 | 0.00 | 0.00 | 0.00 | 84 | 1009.4 |
| 20260505174012 | 27 | 243 | 6.4 | 14.5 | 0.00 | 0.00 | 0.00 | 85 | 1009.5 |
| 20260505173509 | 26 | 205 | 4.8 | 12.9 | 0.00 | 0.00 | 0.00 | 85 | 1009.5 |
| 20260505173011 | 26 | 169 | 6.4 | 17.7 | 0.00 | 0.00 | 0.00 | 84 | 1009.6 |
| 20260505172506 | 26 | 188 | 4.8 | 17.7 | 0.00 | 0.00 | 0.00 | 84 | 1009.5 |
| 20260505172007 | 26 | 227 | 6.4 | 19.3 | 0.00 | 0.00 | 0.00 | 84 | 1009.5 |
| 20260505171527 | 26 | 241 | 9.7 | 19.3 | 0.00 | 0.00 | 0.00 | 84 | 1009.5 |
| 20260505171009 | 26 | 173 | 6.4 | 19.3 | 0.00 | 0.00 | 0.00 | 85 | 1009.5 |
| 20260505170511 | 26 | 214 | 8.0 | 22.5 | 0.00 | 0.00 | 0.00 | 85 | 1009.5 |
| 20260505170026 | 26 | 161 | 8.0 | 22.5 | 0.00 | 0.00 | 0.00 | 85 | 1009.7 |
| 20260505165511 | 26 | 275 | 8.0 | 19.3 | 0.00 | 0.00 | 0.00 | 85 | 1009.6 |
| 20260505165004 | 26 | 178 | 6.4 | 19.3 | 0.00 | 0.00 | 0.00 | 85 | 1009.6 |
| 20260505164510 | 26 | 193 | 9.7 | 19.3 | 0.00 | 0.00 | 0.00 | 86 | 1009.5 |
| 20260505164008 | 26 | 225 | 6.4 | 17.7 | 0.00 | 0.00 | 0.00 | 86 | 1009.6 |
| 20260505163509 | 26 | 153 | 4.8 | 17.7 | 0.00 | 0.00 | 0.00 | 87 | 1009.5 |
| 20260505163020 | 26 | 207 | 4.8 | 14.5 | 0.00 | 0.00 | 0.00 | 88 | 1009.6 |
| 20260505162507 | 25 | 190 | 4.8 | 11.3 | 0.00 | 0.00 | 0.00 | 88 | 1009.5 |
| 20260505162011 | 25 | 146 | 6.4 | 16.1 | 0.00 | 0.00 | 0.00 | 88 | 1009.6 |
| 20260505161528 | 25 | 196 | 6.4 | 16.1 | 0.00 | 0.00 | 0.00 | 87 | 1009.7 |